Time,TemperatureF,DewpointF,PressureIn,WindDirection,WindDirectionDegrees,WindSpeedMPH,WindSpeedGustMPH,Humidity,HourlyPrecipIn,Conditions,Clouds,dailyrainin,SoftwareType,DateUTC
2013-11-06 00:04:00,53.2,37.4,30.15,East,90,3.0,3.0,55,0.00,,,0.00,meteohub,2013-11-06 08:04:00,
2013-11-06 00:09:00,53.2,37.0,30.14,NE,45,4.0,4.0,54,0.00,,,0.00,meteohub,2013-11-06 08:09:00,
2013-11-06 00:14:00,53.1,36.9,30.14,NE,45,0.0,4.0,54,0.00,,,0.00,meteohub,2013-11-06 08:14:00,
2013-11-06 00:19:00,52.7,37.4,30.15,NE,45,2.0,4.0,56,0.00,,,0.00,meteohub,2013-11-06 08:19:00,
2013-11-06 00:24:00,52.7,37.9,30.15,NE,45,2.0,4.0,57,0.00,,,0.00,meteohub,2013-11-06 08:24:00,
2013-11-06 00:29:00,52.7,38.8,30.15,NE,45,3.0,3.0,59,0.00,,,0.00,meteohub,2013-11-06 08:29:00,
2013-11-06 00:34:00,52.5,38.1,30.15,NE,45,1.0,3.0,58,0.00,,,0.00,meteohub,2013-11-06 08:34:00,
2013-11-06 00:39:00,52.2,39.9,30.15,NE,45,2.0,3.0,63,0.00,,,0.00,meteohub,2013-11-06 08:39:00,
2013-11-06 00:44:00,51.6,39.9,30.15,NE,45,2.0,3.0,64,0.00,,,0.00,meteohub,2013-11-06 08:44:00,
2013-11-06 00:49:00,51.4,40.1,30.15,NE,45,3.0,3.0,65,0.00,,,0.00,meteohub,2013-11-06 08:49:00,
2013-11-06 00:54:00,51.4,40.8,30.15,NE,45,2.0,2.0,67,0.00,,,0.00,meteohub,2013-11-06 08:54:00,
2013-11-06 00:59:00,51.6,41.0,30.15,East,90,4.0,4.0,67,0.00,,,0.00,meteohub,2013-11-06 08:59:00,
2013-11-06 01:04:00,52.3,41.0,30.15,East,90,4.0,4.0,65,0.00,,,0.00,meteohub,2013-11-06 09:04:00,
2013-11-06 01:09:00,52.3,40.5,30.15,East,90,2.0,4.0,64,0.00,,,0.00,meteohub,2013-11-06 09:09:00,
2013-11-06 01:14:00,51.6,39.9,30.15,East,90,1.0,4.0,64,0.00,,,0.00,meteohub,2013-11-06 09:14:00,
2013-11-06 01:19:00,51.3,38.7,30.15,East,90,3.0,4.0,62,0.00,,,0.00,meteohub,2013-11-06 09:19:00,
2013-11-06 01:24:00,51.1,38.1,30.15,East,90,2.0,4.0,61,0.00,,,0.00,meteohub,2013-11-06 09:24:00,
2013-11-06 01:29:00,50.9,37.6,30.15,East,90,1.0,4.0,60,0.00,,,0.00,meteohub,2013-11-06 09:29:00,
2013-11-06 01:34:00,50.7,37.8,30.16,East,90,2.0,4.0,61,0.00,,,0.00,meteohub,2013-11-06 09:34:00,
2013-11-06 01:39:00,50.5,37.2,30.16,East,90,1.0,3.0,60,0.00,,,0.00,meteohub,2013-11-06 09:39:00,
2013-11-06 01:44:00,50.2,37.2,30.16,East,90,2.0,3.0,61,0.00,,,0.00,meteohub,2013-11-06 09:44:00,
2013-11-06 01:49:00,50.2,37.6,30.15,East,90,2.0,2.0,62,0.00,,,0.00,meteohub,2013-11-06 09:49:00,
2013-11-06 01:54:00,49.8,37.8,30.15,East,90,0.0,2.0,63,0.00,,,0.00,meteohub,2013-11-06 09:54:00,
2013-11-06 01:59:00,49.3,37.6,30.16,East,90,0.0,2.0,64,0.00,,,0.00,meteohub,2013-11-06 09:59:00,
2013-11-06 02:04:00,48.9,37.8,30.16,NE,45,3.0,3.0,65,0.00,,,0.00,meteohub,2013-11-06 10:04:00,
2013-11-06 02:09:00,49.1,38.3,30.16,NE,45,2.0,2.0,66,0.00,,,0.00,meteohub,2013-11-06 10:09:00,
2013-11-06 02:14:00,49.8,38.8,30.15,NE,45,3.0,3.0,66,0.00,,,0.00,meteohub,2013-11-06 10:14:00,
2013-11-06 02:19:00,50.5,39.6,30.15,NE,45,2.0,3.0,66,0.00,,,0.00,meteohub,2013-11-06 10:19:00,
2013-11-06 02:24:00,50.5,39.9,30.15,East,90,2.0,3.0,67,0.00,,,0.00,meteohub,2013-11-06 10:24:00,
2013-11-06 02:29:00,50.4,39.7,30.15,East,90,1.0,3.0,67,0.00,,,0.00,meteohub,2013-11-06 10:29:00,
2013-11-06 02:34:00,49.6,39.9,30.16,East,90,2.0,3.0,69,0.00,,,0.00,meteohub,2013-11-06 10:34:00,
2013-11-06 02:39:00,49.1,39.7,30.16,East,90,0.0,3.0,70,0.00,,,0.00,meteohub,2013-11-06 10:39:00,
2013-11-06 02:44:00,48.7,39.4,30.16,East,90,2.0,2.0,70,0.00,,,0.00,meteohub,2013-11-06 10:44:00,
2013-11-06 02:49:00,48.4,39.4,30.16,East,90,2.0,2.0,71,0.00,,,0.00,meteohub,2013-11-06 10:49:00,
2013-11-06 02:54:00,48.4,39.4,30.16,East,90,1.0,2.0,71,0.00,,,0.00,meteohub,2013-11-06 10:54:00,
2013-11-06 02:59:00,48.0,39.4,30.16,East,90,2.0,2.0,72,0.00,,,0.00,meteohub,2013-11-06 10:59:00,
2013-11-06 03:04:00,47.8,39.2,30.16,East,90,1.0,2.0,72,0.00,,,0.00,meteohub,2013-11-06 11:04:00,
2013-11-06 03:09:00,48.0,39.7,30.15,East,90,1.0,2.0,73,0.00,,,0.00,meteohub,2013-11-06 11:09:00,
2013-11-06 03:14:00,47.7,39.4,30.16,East,90,0.0,2.0,73,0.00,,,0.00,meteohub,2013-11-06 11:14:00,
2013-11-06 03:19:00,47.5,39.6,30.16,East,90,0.0,2.0,74,0.00,,,0.00,meteohub,2013-11-06 11:19:00,
2013-11-06 03:24:00,46.8,38.8,30.16,East,90,0.0,1.0,74,0.00,,,0.00,meteohub,2013-11-06 11:24:00,
2013-11-06 03:29:00,47.1,40.6,30.15,East,90,3.0,0.0,78,0.00,,,0.00,meteohub,2013-11-06 11:29:00,
2013-11-06 03:34:00,48.0,41.2,30.15,East,90,2.0,2.0,77,0.00,,,0.00,meteohub,2013-11-06 11:34:00,
2013-11-06 03:39:00,48.4,41.2,30.15,East,90,2.0,3.0,76,0.00,,,0.00,meteohub,2013-11-06 11:39:00,
2013-11-06 03:44:00,48.0,40.5,30.16,East,90,2.0,3.0,75,0.00,,,0.00,meteohub,2013-11-06 11:44:00,
2013-11-06 03:49:00,47.7,40.5,30.16,East,90,2.0,3.0,76,0.00,,,0.00,meteohub,2013-11-06 11:49:00,
2013-11-06 03:54:00,47.5,40.3,30.16,East,90,2.0,2.0,76,0.00,,,0.00,meteohub,2013-11-06 11:54:00,
2013-11-06 03:59:00,47.3,39.7,30.16,East,90,0.0,2.0,75,0.00,,,0.00,meteohub,2013-11-06 11:59:00,
2013-11-06 04:04:00,47.3,39.7,30.16,East,90,2.0,2.0,75,0.00,,,0.00,meteohub,2013-11-06 12:04:00,
2013-11-06 04:09:00,47.5,39.6,30.15,East,90,2.0,2.0,74,0.00,,,0.00,meteohub,2013-11-06 12:09:00,
2013-11-06 04:14:00,47.7,39.7,30.15,East,90,2.0,2.0,74,0.00,,,0.00,meteohub,2013-11-06 12:14:00,
2013-11-06 04:19:00,47.5,39.6,30.15,East,90,2.0,2.0,74,0.00,,,0.00,meteohub,2013-11-06 12:19:00,
2013-11-06 04:24:00,47.3,39.4,30.15,East,90,2.0,2.0,74,0.00,,,0.00,meteohub,2013-11-06 12:24:00,
2013-11-06 04:29:00,47.1,39.2,30.16,East,90,2.0,3.0,74,0.00,,,0.00,meteohub,2013-11-06 12:29:00,
2013-11-06 04:34:00,46.8,39.2,30.16,East,90,2.0,3.0,75,0.00,,,0.00,meteohub,2013-11-06 12:34:00,
2013-11-06 04:39:00,46.8,39.2,30.16,NNE,23,2.0,3.0,75,0.00,,,0.00,meteohub,2013-11-06 12:39:00,
2013-11-06 04:44:00,47.1,39.2,30.16,NNE,23,2.0,3.0,74,0.00,,,0.00,meteohub,2013-11-06 12:44:00,
2013-11-06 04:49:00,47.3,38.7,30.16,NNE,23,2.0,3.0,72,0.00,,,0.00,meteohub,2013-11-06 12:49:00,
2013-11-06 04:54:00,47.8,38.1,30.16,NE,45,2.0,3.0,69,0.00,,,0.00,meteohub,2013-11-06 12:54:00,
2013-11-06 04:59:00,48.2,38.1,30.16,East,90,2.0,3.0,68,0.00,,,0.00,meteohub,2013-11-06 12:59:00,
2013-11-06 05:04:00,48.2,37.8,30.15,East,90,3.0,4.0,67,0.00,,,0.00,meteohub,2013-11-06 13:04:00,
2013-11-06 05:09:00,47.7,37.6,30.15,East,90,2.0,4.0,68,0.00,,,0.00,meteohub,2013-11-06 13:09:00,
2013-11-06 05:14:00,46.9,37.2,30.16,East,90,1.0,4.0,69,0.00,,,0.00,meteohub,2013-11-06 13:14:00,
2013-11-06 05:19:00,46.0,36.9,30.16,East,90,0.0,4.0,70,0.00,,,0.00,meteohub,2013-11-06 13:19:00,
2013-11-06 05:24:00,45.1,36.3,30.16,East,90,0.0,3.0,71,0.00,,,0.00,meteohub,2013-11-06 13:24:00,
2013-11-06 05:29:00,45.0,36.9,30.16,East,90,1.0,2.0,73,0.00,,,0.00,meteohub,2013-11-06 13:29:00,
2013-11-06 05:34:00,45.5,37.4,30.16,NE,45,2.0,2.0,73,0.00,,,0.00,meteohub,2013-11-06 13:34:00,
2013-11-06 05:40:00,46.2,37.0,30.16,NE,45,2.0,2.0,70,0.00,,,0.00,meteohub,2013-11-06 13:40:00,
2013-11-06 05:45:00,46.9,36.5,30.16,NE,45,2.0,2.0,67,0.00,,,0.00,meteohub,2013-11-06 13:45:00,
2013-11-06 05:50:00,47.3,36.5,30.16,NE,45,2.0,4.0,66,0.00,,,0.00,meteohub,2013-11-06 13:50:00,
2013-11-06 05:55:00,47.3,35.8,30.16,NE,45,3.0,4.0,64,0.00,,,0.00,meteohub,2013-11-06 13:55:00,
2013-11-06 05:59:00,47.5,35.1,30.16,NE,45,3.0,3.0,62,0.00,,,0.00,meteohub,2013-11-06 13:59:00,
2013-11-06 06:04:00,47.3,34.9,30.16,NE,45,2.0,3.0,62,0.00,,,0.00,meteohub,2013-11-06 14:04:00,
2013-11-06 06:09:00,46.9,34.5,30.16,NE,45,2.0,3.0,62,0.00,,,0.00,meteohub,2013-11-06 14:09:00,
2013-11-06 06:14:00,46.8,34.5,30.16,NE,45,2.0,3.0,62,0.00,,,0.00,meteohub,2013-11-06 14:14:00,
2013-11-06 06:19:00,47.3,34.2,30.16,NE,45,2.0,4.0,60,0.00,,,0.00,meteohub,2013-11-06 14:19:00,
2013-11-06 06:24:00,47.7,33.3,30.16,NE,45,2.0,4.0,57,0.00,,,0.00,meteohub,2013-11-06 14:24:00,
2013-11-06 06:29:00,48.6,32.7,30.16,NE,45,2.0,4.0,54,0.00,,,0.00,meteohub,2013-11-06 14:29:00,
2013-11-06 06:34:00,49.1,32.2,30.16,NE,45,2.0,3.0,52,0.00,,,0.00,meteohub,2013-11-06 14:34:00,
2013-11-06 06:39:00,49.5,31.6,30.16,NE,45,2.0,3.0,50,0.00,,,0.00,meteohub,2013-11-06 14:39:00,
2013-11-06 06:44:00,50.0,32.2,30.17,NE,45,2.0,4.0,50,0.00,,,0.00,meteohub,2013-11-06 14:44:00,
2013-11-06 06:49:00,50.0,33.1,30.18,NE,45,0.0,4.0,52,0.00,,,0.00,meteohub,2013-11-06 14:49:00,
2013-11-06 06:54:00,50.0,33.6,30.18,NE,45,1.0,4.0,53,0.00,,,0.00,meteohub,2013-11-06 14:54:00,
2013-11-06 06:59:00,53.8,36.5,30.18,NE,45,2.0,2.0,52,0.00,,,0.00,meteohub,2013-11-06 14:59:00,
2013-11-06 07:04:00,57.9,35.6,30.18,NE,45,2.0,2.0,43,0.00,,,0.00,meteohub,2013-11-06 15:04:00,
2013-11-06 07:09:00,60.6,35.6,30.18,NE,45,2.0,2.0,39,0.00,,,0.00,meteohub,2013-11-06 15:09:00,
2013-11-06 07:14:00,61.9,33.3,30.19,North,0,3.0,3.0,34,0.00,,,0.00,meteohub,2013-11-06 15:14:00,
2013-11-06 07:19:00,60.3,31.8,30.19,NE,45,2.0,3.0,34,0.00,,,0.00,meteohub,2013-11-06 15:19:00,
2013-11-06 07:24:00,59.4,32.4,30.19,NE,45,3.0,3.0,36,0.00,,,0.00,meteohub,2013-11-06 15:24:00,
2013-11-06 07:29:00,61.7,31.5,30.19,East,90,2.0,3.0,32,0.00,,,0.00,meteohub,2013-11-06 15:29:00,
2013-11-06 07:34:00,62.8,32.5,30.19,SE,135,1.0,3.0,32,0.00,,,0.00,meteohub,2013-11-06 15:34:00,
2013-11-06 07:39:00,64.6,31.6,30.19,SE,135,2.0,5.0,29,0.00,,,0.00,meteohub,2013-11-06 15:39:00,
2013-11-06 07:44:00,66.6,33.3,30.20,NW,315,2.0,5.0,29,0.00,,,0.00,meteohub,2013-11-06 15:44:00,
2013-11-06 07:49:00,68.4,33.1,30.20,NW,315,1.0,5.0,27,0.00,,,0.00,meteohub,2013-11-06 15:49:00,
2013-11-06 07:54:00,70.3,33.8,30.20,NW,315,1.0,2.0,26,0.00,,,0.00,meteohub,2013-11-06 15:54:00,
2013-11-06 07:59:00,70.5,28.8,30.20,NE,45,2.0,2.0,21,0.00,,,0.00,meteohub,2013-11-06 15:59:00,
2013-11-06 08:04:00,70.2,29.5,30.20,NE,45,1.0,2.0,22,0.00,,,0.00,meteohub,2013-11-06 16:04:00,
2013-11-06 08:09:00,70.5,29.8,30.20,South,180,2.0,2.0,22,0.00,,,0.00,meteohub,2013-11-06 16:09:00,
2013-11-06 08:14:00,70.7,30.0,30.20,SE,135,2.0,3.0,22,0.00,,,0.00,meteohub,2013-11-06 16:14:00,
2013-11-06 08:19:00,70.7,30.0,30.21,South,180,2.0,3.0,22,0.00,,,0.00,meteohub,2013-11-06 16:19:00,
2013-11-06 08:24:00,71.8,29.7,30.21,SE,135,2.0,3.0,21,0.00,,,0.00,meteohub,2013-11-06 16:24:00,
2013-11-06 08:29:00,72.5,30.4,30.21,SE,135,2.0,2.0,21,0.00,,,0.00,meteohub,2013-11-06 16:29:00,
2013-11-06 08:34:00,73.2,27.1,30.21,ESE,113,2.0,2.0,18,0.00,,,0.00,meteohub,2013-11-06 16:34:00,
2013-11-06 08:39:00,74.7,28.4,30.21,SW,225,1.0,2.0,18,0.00,,,0.00,meteohub,2013-11-06 16:39:00,
2013-11-06 08:44:00,75.6,27.7,30.21,East,90,1.0,2.0,17,0.00,,,0.00,meteohub,2013-11-06 16:44:00,
2013-11-06 08:49:00,75.0,24.3,30.21,NW,315,2.0,2.0,15,0.00,,,0.00,meteohub,2013-11-06 16:49:00,
2013-11-06 08:54:00,75.2,25.9,30.21,NW,315,2.0,2.0,16,0.00,,,0.00,meteohub,2013-11-06 16:54:00,
2013-11-06 08:59:00,75.9,25.0,30.21,West,270,1.0,2.0,15,0.00,,,0.00,meteohub,2013-11-06 16:59:00,
2013-11-06 09:04:00,76.1,19.8,30.21,West,270,3.0,3.0,12,0.00,,,0.00,meteohub,2013-11-06 17:04:00,
2013-11-06 09:09:00,74.8,22.5,30.21,NW,315,2.0,3.0,14,0.00,,,0.00,meteohub,2013-11-06 17:09:00,
2013-11-06 09:14:00,75.2,21.0,30.21,NW,315,2.0,3.0,13,0.00,,,0.00,meteohub,2013-11-06 17:14:00,
2013-11-06 09:19:00,77.2,20.7,30.21,NW,315,1.0,3.0,12,0.00,,,0.00,meteohub,2013-11-06 17:19:00,
2013-11-06 09:24:00,78.3,21.6,30.21,North,0,2.0,2.0,12,0.00,,,0.00,meteohub,2013-11-06 17:24:00,
2013-11-06 09:29:00,78.3,19.4,30.21,North,0,2.0,3.0,11,0.00,,,0.00,meteohub,2013-11-06 17:29:00,
2013-11-06 09:34:00,78.4,78.4,30.21,South,180,1.0,3.0,0,0.00,,,0.00,meteohub,2013-11-06 17:34:00,
2013-11-06 09:39:00,79.7,18.3,30.21,South,180,2.0,3.0,10,0.00,,,0.00,meteohub,2013-11-06 17:39:00,
2013-11-06 09:44:00,78.3,78.3,30.21,NNE,23,2.0,3.0,0,0.00,,,0.00,meteohub,2013-11-06 17:44:00,
2013-11-06 09:49:00,78.4,78.4,30.21,NW,315,1.0,4.0,0,0.00,,,0.00,meteohub,2013-11-06 17:49:00,
2013-11-06 09:54:00,79.0,79.0,30.21,North,0,2.0,4.0,0,0.00,,,0.00,meteohub,2013-11-06 17:54:00,
2013-11-06 09:59:00,79.3,79.3,30.21,NNE,23,2.0,4.0,0,0.00,,,0.00,meteohub,2013-11-06 17:59:00,
2013-11-06 10:04:00,78.8,78.8,30.21,NW,315,1.0,3.0,0,0.00,,,0.00,meteohub,2013-11-06 18:04:00,
2013-11-06 10:09:00,79.0,79.0,30.21,North,0,2.0,3.0,0,0.00,,,0.00,meteohub,2013-11-06 18:09:00,
2013-11-06 10:14:00,78.3,78.3,30.21,North,0,2.0,3.0,0,0.00,,,0.00,meteohub,2013-11-06 18:14:00,
2013-11-06 10:19:00,78.3,78.3,30.20,North,0,0.0,4.0,0,0.00,,,0.00,meteohub,2013-11-06 18:19:00,
2013-11-06 10:24:00,78.6,78.6,30.20,North,0,2.0,4.0,0,0.00,,,0.00,meteohub,2013-11-06 18:24:00,
2013-11-06 10:29:00,78.8,78.8,30.20,North,0,2.0,4.0,0,0.00,,,0.00,meteohub,2013-11-06 18:29:00,
2013-11-06 10:34:00,78.1,78.1,30.20,NE,45,2.0,3.0,0,0.00,,,0.00,meteohub,2013-11-06 18:34:00,
2013-11-06 10:39:00,78.3,78.3,30.20,NW,315,4.0,4.0,0,0.00,,,0.00,meteohub,2013-11-06 18:39:00,
2013-11-06 10:44:00,78.3,78.3,30.20,NE,45,2.0,3.0,0,0.00,,,0.00,meteohub,2013-11-06 18:44:00,
2013-11-06 10:49:00,78.8,78.8,30.19,NW,315,3.0,4.0,0,0.00,,,0.00,meteohub,2013-11-06 18:49:00,
2013-11-06 10:55:00,79.5,79.5,30.19,NE,45,3.0,4.0,0,0.00,,,0.00,meteohub,2013-11-06 18:55:00,
2013-11-06 11:00:00,79.5,79.5,30.19,North,0,4.0,4.0,0,0.00,,,0.00,meteohub,2013-11-06 19:00:00,
2013-11-06 11:05:00,79.9,79.9,30.19,NNW,338,3.0,4.0,0,0.00,,,0.00,meteohub,2013-11-06 19:05:00,
2013-11-06 11:10:00,80.2,80.2,30.19,NW,315,2.0,4.0,0,0.00,,,0.00,meteohub,2013-11-06 19:10:00,
2013-11-06 11:15:00,81.0,81.0,30.19,NW,315,2.0,4.0,0,0.00,,,0.00,meteohub,2013-11-06 19:15:00,
2013-11-06 11:20:00,81.9,81.9,30.19,NW,315,2.0,4.0,0,0.00,,,0.00,meteohub,2013-11-06 19:20:00,
2013-11-06 11:25:00,82.0,82.0,30.18,NW,315,4.0,4.0,0,0.00,,,0.00,meteohub,2013-11-06 19:25:00,
2013-11-06 11:30:00,82.2,82.2,30.18,NW,315,1.0,4.0,0,0.00,,,0.00,meteohub,2013-11-06 19:30:00,
2013-11-06 11:35:00,84.6,84.6,30.18,West,270,2.0,4.0,0,0.00,,,0.00,meteohub,2013-11-06 19:35:00,
2013-11-06 11:40:00,86.0,86.0,30.17,West,270,3.0,4.0,0,0.00,,,0.00,meteohub,2013-11-06 19:40:00,
2013-11-06 11:45:00,85.8,85.8,30.17,North,0,2.0,4.0,0,0.00,,,0.00,meteohub,2013-11-06 19:45:00,
2013-11-06 11:50:00,85.3,85.3,30.17,West,270,3.0,4.0,0,0.00,,,0.00,meteohub,2013-11-06 19:50:00,
2013-11-06 11:55:00,84.2,84.2,30.16,NW,315,5.0,5.0,0,0.00,,,0.00,meteohub,2013-11-06 19:55:00,
2013-11-06 12:00:00,82.9,25.2,30.17,NW,315,8.0,8.0,12,0.00,,,0.00,meteohub,2013-11-06 20:00:00,
2013-11-06 12:05:00,81.5,27.7,30.16,WNW,293,8.0,8.0,14,0.00,,,0.00,meteohub,2013-11-06 20:05:00,
2013-11-06 12:10:00,80.8,30.4,30.16,WNW,293,8.0,9.0,16,0.00,,,0.00,meteohub,2013-11-06 20:10:00,
2013-11-06 12:15:00,80.6,39.4,30.16,West,270,8.0,9.0,23,0.00,,,0.00,meteohub,2013-11-06 20:15:00,
2013-11-06 12:20:00,80.1,34.2,30.15,NW,315,10.0,10.0,19,0.00,,,0.00,meteohub,2013-11-06 20:20:00,
2013-11-06 12:25:00,80.2,36.7,30.16,WNW,293,8.0,10.0,21,0.00,,,0.00,meteohub,2013-11-06 20:25:00,
2013-11-06 12:30:00,79.2,38.1,30.16,West,270,10.0,10.0,23,0.00,,,0.00,meteohub,2013-11-06 20:30:00,
2013-11-06 12:35:00,78.1,37.2,30.15,NW,315,9.0,10.0,23,0.00,,,0.00,meteohub,2013-11-06 20:35:00,
2013-11-06 12:40:00,77.9,39.2,30.15,NW,315,11.0,11.0,25,0.00,,,0.00,meteohub,2013-11-06 20:40:00,
2013-11-06 12:45:00,77.2,34.2,30.15,NW,315,9.0,10.0,21,0.00,,,0.00,meteohub,2013-11-06 20:45:00,
2013-11-06 12:50:00,77.0,35.2,30.15,NW,315,5.0,11.0,22,0.00,,,0.00,meteohub,2013-11-06 20:50:00,
2013-11-06 12:55:00,77.0,36.3,30.15,NW,315,7.0,11.0,23,0.00,,,0.00,meteohub,2013-11-06 20:55:00,
2013-11-06 13:00:00,77.0,35.2,30.14,NW,315,8.0,11.0,22,0.00,,,0.00,meteohub,2013-11-06 21:00:00,
2013-11-06 13:05:00,77.0,35.2,30.14,West,270,8.0,10.0,22,0.00,,,0.00,meteohub,2013-11-06 21:05:00,
2013-11-06 13:10:00,76.8,30.0,30.14,West,270,8.0,10.0,18,0.00,,,0.00,meteohub,2013-11-06 21:10:00,
2013-11-06 13:15:00,76.5,25.3,30.13,West,270,8.0,10.0,15,0.00,,,0.00,meteohub,2013-11-06 21:15:00,
2013-11-06 13:20:00,77.0,24.1,30.14,NW,315,9.0,9.0,14,0.00,,,0.00,meteohub,2013-11-06 21:20:00,
2013-11-06 13:25:00,77.0,22.5,30.13,NW,315,5.0,9.0,13,0.00,,,0.00,meteohub,2013-11-06 21:25:00,
2013-11-06 13:30:00,77.2,24.3,30.13,NW,315,4.0,10.0,14,0.00,,,0.00,meteohub,2013-11-06 21:30:00,
2013-11-06 13:35:00,77.2,77.2,30.13,NW,315,8.0,9.0,0,0.00,,,0.00,meteohub,2013-11-06 21:35:00,
2013-11-06 13:40:00,77.2,18.7,30.13,NW,315,8.0,10.0,11,0.00,,,0.00,meteohub,2013-11-06 21:40:00,
2013-11-06 13:45:00,77.5,20.8,30.12,NW,315,7.0,10.0,12,0.00,,,0.00,meteohub,2013-11-06 21:45:00,
2013-11-06 13:50:00,78.1,19.2,30.13,NNW,338,6.0,9.0,11,0.00,,,0.00,meteohub,2013-11-06 21:50:00,
2013-11-06 13:55:00,78.8,78.8,30.12,West,270,8.0,8.0,0,0.00,,,0.00,meteohub,2013-11-06 21:55:00,
2013-11-06 14:00:00,78.4,78.4,30.12,NW,315,9.0,10.0,0,0.00,,,0.00,meteohub,2013-11-06 22:00:00,
2013-11-06 14:05:00,78.4,78.4,30.13,NW,315,8.0,10.0,0,0.00,,,0.00,meteohub,2013-11-06 22:05:00,
2013-11-06 14:10:00,78.8,78.8,30.12,West,270,6.0,11.0,0,0.00,,,0.00,meteohub,2013-11-06 22:10:00,
2013-11-06 14:15:00,78.4,78.4,30.12,NW,315,9.0,11.0,0,0.00,,,0.00,meteohub,2013-11-06 22:15:00,
2013-11-06 14:20:00,78.4,78.4,30.12,West,270,8.0,11.0,0,0.00,,,0.00,meteohub,2013-11-06 22:20:00,
2013-11-06 14:25:00,78.1,78.1,30.12,NW,315,11.0,12.0,0,0.00,,,0.00,meteohub,2013-11-06 22:25:00,
2013-11-06 14:30:00,77.7,19.0,30.13,West,270,12.0,12.0,11,0.00,,,0.00,meteohub,2013-11-06 22:30:00,
2013-11-06 14:35:00,77.7,23.0,30.12,NW,315,11.0,12.0,13,0.00,,,0.00,meteohub,2013-11-06 22:35:00,
2013-11-06 14:40:00,78.1,31.1,30.12,NW,315,7.0,12.0,18,0.00,,,0.00,meteohub,2013-11-06 22:40:00,
2013-11-06 14:45:00,78.8,33.1,30.12,NW,315,8.0,12.0,19,0.00,,,0.00,meteohub,2013-11-06 22:45:00,
2013-11-06 14:50:00,78.1,36.1,30.12,NW,315,9.0,11.0,22,0.00,,,0.00,meteohub,2013-11-06 22:50:00,
2013-11-06 14:55:00,78.6,32.9,30.12,WNW,293,5.0,11.0,19,0.00,,,0.00,meteohub,2013-11-06 22:55:00,
2013-11-06 15:00:00,79.3,27.7,30.12,NW,315,8.0,11.0,15,0.00,,,0.00,meteohub,2013-11-06 23:00:00,
2013-11-06 15:05:00,79.7,28.0,30.12,NW,315,3.0,9.0,15,0.00,,,0.00,meteohub,2013-11-06 23:05:00,
2013-11-06 15:10:00,79.7,32.4,30.12,West,270,7.0,8.0,18,0.00,,,0.00,meteohub,2013-11-06 23:10:00,
2013-11-06 15:15:00,79.5,33.6,30.12,West,270,6.0,8.0,19,0.00,,,0.00,meteohub,2013-11-06 23:15:00,
2013-11-06 15:20:00,79.9,31.1,30.12,NE,45,3.0,7.0,17,0.00,,,0.00,meteohub,2013-11-06 23:20:00,
2013-11-06 15:25:00,80.8,28.8,30.12,NW,315,4.0,7.0,15,0.00,,,0.00,meteohub,2013-11-06 23:25:00,
2013-11-06 15:30:00,80.8,34.7,30.12,North,0,4.0,8.0,19,0.00,,,0.00,meteohub,2013-11-06 23:30:00,
2013-11-06 15:36:00,80.8,34.7,30.11,NW,315,5.0,8.0,19,0.00,,,0.00,meteohub,2013-11-06 23:36:00,
2013-11-06 15:41:00,81.0,34.9,30.12,West,270,2.0,8.0,19,0.00,,,0.00,meteohub,2013-11-06 23:41:00,
2013-11-06 15:46:00,81.9,35.6,30.11,WNW,293,2.0,7.0,19,0.00,,,0.00,meteohub,2013-11-06 23:46:00,
2013-11-06 15:51:00,82.2,34.5,30.12,NW,315,3.0,5.0,18,0.00,,,0.00,meteohub,2013-11-06 23:51:00,
2013-11-06 15:56:00,82.0,39.4,30.12,WNW,293,2.0,4.0,22,0.00,,,0.00,meteohub,2013-11-06 23:56:00,
2013-11-06 16:01:00,82.4,37.2,30.12,North,0,2.0,4.0,20,0.00,,,0.00,meteohub,2013-11-07 00:01:00,
2013-11-06 16:06:00,82.4,33.3,30.12,North,0,3.0,4.0,17,0.00,,,0.00,meteohub,2013-11-07 00:06:00,
2013-11-06 16:11:00,81.7,31.1,30.11,NE,45,3.0,6.0,16,0.00,,,0.00,meteohub,2013-11-07 00:11:00,
2013-11-06 16:16:00,80.6,31.8,30.12,North,0,3.0,6.0,17,0.00,,,0.00,meteohub,2013-11-07 00:16:00,
2013-11-06 16:21:00,79.7,31.1,30.12,NNE,23,3.0,5.0,17,0.00,,,0.00,meteohub,2013-11-07 00:21:00,
2013-11-06 16:26:00,78.6,32.9,30.12,North,0,4.0,7.0,19,0.00,,,0.00,meteohub,2013-11-07 00:26:00,
2013-11-06 16:31:00,77.7,34.7,30.12,North,0,3.0,7.0,21,0.00,,,0.00,meteohub,2013-11-07 00:31:00,
2013-11-06 16:36:00,77.0,35.2,30.12,NNW,338,2.0,7.0,22,0.00,,,0.00,meteohub,2013-11-07 00:36:00,
2013-11-06 16:41:00,75.7,36.3,30.12,North,0,4.0,5.0,24,0.00,,,0.00,meteohub,2013-11-07 00:41:00,
2013-11-06 16:46:00,74.3,36.1,30.12,North,0,2.0,4.0,25,0.00,,,0.00,meteohub,2013-11-07 00:46:00,
2013-11-06 16:51:00,73.2,36.3,30.12,North,0,5.0,5.0,26,0.00,,,0.00,meteohub,2013-11-07 00:51:00,
2013-11-06 16:56:00,72.5,35.6,30.12,NNE,23,4.0,6.0,26,0.00,,,0.00,meteohub,2013-11-07 00:56:00,
2013-11-06 17:01:00,71.8,36.0,30.13,North,0,2.0,6.0,27,0.00,,,0.00,meteohub,2013-11-07 01:01:00,
2013-11-06 17:06:00,71.1,34.5,30.13,North,0,4.0,6.0,26,0.00,,,0.00,meteohub,2013-11-07 01:06:00,
2013-11-06 17:11:00,70.5,34.0,30.13,North,0,2.0,6.0,26,0.00,,,0.00,meteohub,2013-11-07 01:11:00,
2013-11-06 17:16:00,70.2,35.6,30.13,North,0,3.0,4.0,28,0.00,,,0.00,meteohub,2013-11-07 01:16:00,
2013-11-06 17:21:00,69.6,36.9,30.13,NNE,23,2.0,4.0,30,0.00,,,0.00,meteohub,2013-11-07 01:21:00,
2013-11-06 17:26:00,69.1,37.2,30.13,NNE,23,2.0,4.0,31,0.00,,,0.00,meteohub,2013-11-07 01:26:00,
2013-11-06 17:31:00,68.7,36.9,30.13,NNE,23,2.0,4.0,31,0.00,,,0.00,meteohub,2013-11-07 01:31:00,
2013-11-06 17:36:00,68.0,36.3,30.13,NE,45,1.0,3.0,31,0.00,,,0.00,meteohub,2013-11-07 01:36:00,
2013-11-06 17:41:00,67.3,36.5,30.13,NE,45,1.0,3.0,32,0.00,,,0.00,meteohub,2013-11-07 01:41:00,
2013-11-06 17:46:00,66.7,36.0,30.14,NE,45,1.0,3.0,32,0.00,,,0.00,meteohub,2013-11-07 01:46:00,
2013-11-06 17:51:00,66.6,36.5,30.14,NE,45,2.0,2.0,33,0.00,,,0.00,meteohub,2013-11-07 01:51:00,
2013-11-06 17:56:00,66.2,36.3,30.14,NE,45,1.0,2.0,33,0.00,,,0.00,meteohub,2013-11-07 01:56:00,
2013-11-06 18:01:00,66.0,36.9,30.14,SSE,158,0.0,2.0,34,0.00,,,0.00,meteohub,2013-11-07 02:01:00,
2013-11-06 18:06:00,65.5,37.8,30.14,North,0,2.0,3.0,36,0.00,,,0.00,meteohub,2013-11-07 02:06:00,
2013-11-06 18:11:00,65.1,38.1,30.14,North,0,2.0,3.0,37,0.00,,,0.00,meteohub,2013-11-07 02:11:00,
2013-11-06 18:16:00,64.9,38.7,30.14,North,0,0.0,3.0,38,0.00,,,0.00,meteohub,2013-11-07 02:16:00,
2013-11-06 18:21:00,64.2,38.1,30.14,North,0,0.0,3.0,38,0.00,,,0.00,meteohub,2013-11-07 02:21:00,
2013-11-06 18:26:00,64.2,40.1,30.14,NNE,23,1.0,2.0,41,0.00,,,0.00,meteohub,2013-11-07 02:26:00,
2013-11-06 18:31:00,63.7,39.6,30.14,NNE,23,0.0,2.0,41,0.00,,,0.00,meteohub,2013-11-07 02:31:00,
2013-11-06 18:36:00,63.0,39.6,30.14,NNE,23,1.0,2.0,42,0.00,,,0.00,meteohub,2013-11-07 02:36:00,
2013-11-06 18:41:00,62.6,40.5,30.14,NNE,23,2.0,2.0,44,0.00,,,0.00,meteohub,2013-11-07 02:41:00,
2013-11-06 18:46:00,62.8,41.2,30.14,North,0,3.0,3.0,45,0.00,,,0.00,meteohub,2013-11-07 02:46:00,
2013-11-06 18:51:00,63.3,41.5,30.14,SE,135,2.0,3.0,45,0.00,,,0.00,meteohub,2013-11-07 02:51:00,
2013-11-06 18:56:00,63.1,40.8,30.14,East,90,0.0,4.0,44,0.00,,,0.00,meteohub,2013-11-07 02:56:00,
2013-11-06 19:01:00,62.4,40.8,30.15,East,90,2.0,4.0,45,0.00,,,0.00,meteohub,2013-11-07 03:01:00,
2013-11-06 19:06:00,61.9,39.7,30.15,East,90,1.0,3.0,44,0.00,,,0.00,meteohub,2013-11-07 03:06:00,
2013-11-06 19:11:00,61.0,38.3,30.15,East,90,1.0,2.0,43,0.00,,,0.00,meteohub,2013-11-07 03:11:00,
2013-11-06 19:16:00,61.0,39.6,30.15,ENE,68,0.0,2.0,45,0.00,,,0.00,meteohub,2013-11-07 03:16:00,
2013-11-06 19:21:00,61.3,37.4,30.14,East,90,2.0,2.0,41,0.00,,,0.00,meteohub,2013-11-07 03:21:00,
2013-11-06 19:26:00,61.5,37.6,30.14,East,90,2.0,2.0,41,0.00,,,0.00,meteohub,2013-11-07 03:26:00,
2013-11-06 19:31:00,61.3,38.1,30.14,East,90,1.0,2.0,42,0.00,,,0.00,meteohub,2013-11-07 03:31:00,
2013-11-06 19:37:00,60.8,38.1,30.14,East,90,2.0,2.0,43,0.00,,,0.00,meteohub,2013-11-07 03:37:00,
2013-11-06 19:41:00,60.4,37.8,30.14,East,90,1.0,2.0,43,0.00,,,0.00,meteohub,2013-11-07 03:41:00,
2013-11-06 19:46:00,59.9,37.9,30.14,East,90,2.0,2.0,44,0.00,,,0.00,meteohub,2013-11-07 03:46:00,
2013-11-06 19:52:00,59.5,38.1,30.14,East,90,0.0,2.0,45,0.00,,,0.00,meteohub,2013-11-07 03:52:00,
2013-11-06 19:57:00,59.2,36.7,30.14,East,90,0.0,2.0,43,0.00,,,0.00,meteohub,2013-11-07 03:57:00,
2013-11-06 20:02:00,59.0,36.5,30.14,East,90,1.0,2.0,43,0.00,,,0.00,meteohub,2013-11-07 04:02:00,
2013-11-06 20:07:00,59.2,36.7,30.14,East,90,1.0,2.0,43,0.00,,,0.00,meteohub,2013-11-07 04:07:00,
2013-11-06 20:12:00,59.4,36.9,30.15,East,90,2.0,2.0,43,0.00,,,0.00,meteohub,2013-11-07 04:12:00,
2013-11-06 20:17:00,59.7,37.2,30.15,East,90,2.0,2.0,43,0.00,,,0.00,meteohub,2013-11-07 04:17:00,
2013-11-06 20:22:00,59.7,37.2,30.15,East,90,0.0,2.0,43,0.00,,,0.00,meteohub,2013-11-07 04:22:00,
2013-11-06 20:27:00,59.4,36.9,30.14,East,90,0.0,2.0,43,0.00,,,0.00,meteohub,2013-11-07 04:27:00,
2013-11-06 20:31:00,58.8,37.6,30.14,East,90,1.0,2.0,45,0.00,,,0.00,meteohub,2013-11-07 04:31:00,
2013-11-06 20:36:00,58.5,37.2,30.15,East,90,0.0,2.0,45,0.00,,,0.00,meteohub,2013-11-07 04:36:00,
2013-11-06 20:42:00,57.6,37.4,30.14,East,90,0.0,1.0,47,0.00,,,0.00,meteohub,2013-11-07 04:42:00,
2013-11-06 20:47:00,57.6,38.5,30.14,East,90,2.0,2.0,49,0.00,,,0.00,meteohub,2013-11-07 04:47:00,
2013-11-06 20:52:00,57.6,38.5,30.14,East,90,2.0,2.0,49,0.00,,,0.00,meteohub,2013-11-07 04:52:00,
2013-11-06 20:57:00,57.2,38.3,30.14,East,90,0.0,2.0,49,0.00,,,0.00,meteohub,2013-11-07 04:57:00,
2013-11-06 21:01:00,56.7,38.3,30.14,East,90,0.0,2.0,50,0.00,,,0.00,meteohub,2013-11-07 05:01:00,
2013-11-06 21:06:00,55.9,39.0,30.14,East,90,0.0,2.0,53,0.00,,,0.00,meteohub,2013-11-07 05:06:00,
2013-11-06 21:11:00,56.3,40.3,30.14,East,90,1.0,2.0,55,0.00,,,0.00,meteohub,2013-11-07 05:11:00,
2013-11-06 21:16:00,56.5,39.6,30.14,East,90,2.0,2.0,53,0.00,,,0.00,meteohub,2013-11-07 05:16:00,
2013-11-06 21:21:00,57.0,39.0,30.14,SE,135,3.0,3.0,51,0.00,,,0.00,meteohub,2013-11-07 05:21:00,
2013-11-06 21:26:00,57.2,39.7,30.14,East,90,2.0,3.0,52,0.00,,,0.00,meteohub,2013-11-07 05:26:00,
2013-11-06 21:31:00,57.0,40.1,30.14,East,90,1.0,3.0,53,0.00,,,0.00,meteohub,2013-11-07 05:31:00,
2013-11-06 21:36:00,55.9,39.9,30.14,East,90,0.0,3.0,55,0.00,,,0.00,meteohub,2013-11-07 05:36:00,
2013-11-06 21:41:00,55.0,40.1,30.14,East,90,0.0,3.0,57,0.00,,,0.00,meteohub,2013-11-07 05:41:00,
2013-11-06 21:46:00,54.5,40.8,30.13,NE,45,2.0,2.0,60,0.00,,,0.00,meteohub,2013-11-07 05:46:00,
2013-11-06 21:51:00,55.8,40.8,30.13,NE,45,4.0,4.0,57,0.00,,,0.00,meteohub,2013-11-07 05:51:00,
2013-11-06 21:56:00,57.0,40.1,30.13,ESE,113,2.0,5.0,53,0.00,,,0.00,meteohub,2013-11-07 05:56:00,
2013-11-06 22:01:00,57.4,40.5,30.13,NE,45,2.0,5.0,53,0.00,,,0.00,meteohub,2013-11-07 06:01:00,
2013-11-06 22:06:00,57.2,40.3,30.13,East,90,2.0,5.0,53,0.00,,,0.00,meteohub,2013-11-07 06:06:00,
2013-11-06 22:11:00,56.8,39.9,30.12,East,90,2.0,4.0,53,0.00,,,0.00,meteohub,2013-11-07 06:11:00,
2013-11-06 22:16:00,56.3,39.9,30.12,East,90,0.0,4.0,54,0.00,,,0.00,meteohub,2013-11-07 06:16:00,
2013-11-06 22:21:00,55.9,39.9,30.12,East,90,2.0,2.0,55,0.00,,,0.00,meteohub,2013-11-07 06:21:00,
2013-11-06 22:26:00,55.6,39.7,30.12,East,90,1.0,2.0,55,0.00,,,0.00,meteohub,2013-11-07 06:26:00,
2013-11-06 22:31:00,55.8,40.3,30.12,East,90,1.0,2.0,56,0.00,,,0.00,meteohub,2013-11-07 06:31:00,
2013-11-06 22:36:00,55.9,40.5,30.12,East,90,0.0,2.0,56,0.00,,,0.00,meteohub,2013-11-07 06:36:00,
2013-11-06 22:41:00,55.4,39.9,30.11,East,90,0.0,2.0,56,0.00,,,0.00,meteohub,2013-11-07 06:41:00,
2013-11-06 22:46:00,54.9,40.3,30.11,East,90,1.0,2.0,58,0.00,,,0.00,meteohub,2013-11-07 06:46:00,
2013-11-06 22:51:00,54.9,40.3,30.11,East,90,2.0,2.0,58,0.00,,,0.00,meteohub,2013-11-07 06:51:00,
2013-11-06 22:56:00,55.0,40.5,30.11,East,90,2.0,2.0,58,0.00,,,0.00,meteohub,2013-11-07 06:56:00,
2013-11-06 23:01:00,54.9,40.3,30.10,East,90,1.0,2.0,58,0.00,,,0.00,meteohub,2013-11-07 07:01:00,
2013-11-06 23:07:00,54.7,40.3,30.10,East,90,0.0,2.0,58,0.00,,,0.00,meteohub,2013-11-07 07:07:00,
2013-11-06 23:12:00,54.0,39.9,30.10,East,90,0.0,2.0,59,0.00,,,0.00,meteohub,2013-11-07 07:12:00,
2013-11-06 23:17:00,53.6,40.1,30.10,East,90,0.0,2.0,60,0.00,,,0.00,meteohub,2013-11-07 07:17:00,
2013-11-06 23:22:00,53.8,41.0,30.10,East,90,0.0,1.0,62,0.00,,,0.00,meteohub,2013-11-07 07:22:00,
2013-11-06 23:27:00,54.3,40.3,30.10,East,90,2.0,2.0,59,0.00,,,0.00,meteohub,2013-11-07 07:27:00,
2013-11-06 23:32:00,54.9,39.9,30.10,East,90,2.0,2.0,57,0.00,,,0.00,meteohub,2013-11-07 07:32:00,
2013-11-06 23:37:00,55.2,39.4,30.09,East,90,1.0,2.0,55,0.00,,,0.00,meteohub,2013-11-07 07:37:00,
2013-11-06 23:42:00,55.0,39.2,30.09,East,90,2.0,2.0,55,0.00,,,0.00,meteohub,2013-11-07 07:42:00,
2013-11-06 23:47:00,55.4,37.6,30.09,East,90,2.0,4.0,51,0.00,,,0.00,meteohub,2013-11-07 07:47:00,
2013-11-06 23:52:00,56.1,36.1,30.09,SE,135,4.0,4.0,47,0.00,,,0.00,meteohub,2013-11-07 07:52:00,
2013-11-06 23:57:00,57.0,34.2,30.09,East,90,4.0,4.0,42,0.00,,,0.00,meteohub,2013-11-07 07:57:00,